QPF
0.03 0.03 0.03 0.03 0.03 0.03 0.03 0.02 0.02 0.02 0.02 0.03 0.03 0.02 0.02 0.01 0.01 0.02 0.03 0.04 0.03 0.04 0.03 0.04 0.06 0.05 0.04 0.03 0.03 0.03 0.03 0.02 0.02 0.02 0.02 0.02 0.01 0.01
0.03 0.02 0.02 0.02 0.02 0.02 0.03 0.02 0.02 0.03 0.03 0.03 0.03 0.04 0.05 0.04 0.03 0.02 0.03 0.04 0.03 0.03 0.02 0.03 0.03 0.02 0.02 0.02 0.01 0.01 0.01 0.01 0.01 0.01 0.01 0.01 0.01 0.01
0.03 0.02 0.02 0.01 0.01 0.01 0.02 0.02 0.02 0.04 0.06 0.04 0.02 0.03 0.07 0.06 0.03 0.02 0.02 0.03 0.02 0.01 0.01 0.01 0.02 0.02 0.02 0.01 0.01 0.00 0.00 0.00 0.00 0.00 0.00 0.00 0.00 0.00
0.04 0.03 0.02 0.01 0.01 0.01 0.01 0.02 0.02 0.03 0.06 0.05 0.03 0.03 0.03 0.03 0.02 0.01 0.01 0.02 0.01 0.01 0.01 0.01 0.01 0.01 0.01 0.01 0.01 0.01 0.01 0.00 0.00 0.00 0.00 0.00 0.00 0.00
0.03 0.02 0.01 0.01 0.01 0.01 0.01 0.01 0.02 0.02 0.03 0.06 0.04 0.03 0.02 0.01 0.01 0.02 0.02 0.03 0.02 0.02 0.02 0.01 0.02 0.02 0.02 0.01 0.02 0.02 0.01 0.01 0.00 0.00 0.00 0.00 0.00 0.00
0.02 0.01 0.01 0.00 0.00 0.00 0.00 0.01 0.01 0.01 0.02 0.04 0.07 0.06 0.05 0.03 0.02 0.01 0.02 0.02 0.02 0.01 0.01 0.01 0.02 0.02 0.02 0.02 0.01 0.01 0.01 0.01 0.01 0.00 0.00 0.00 0.00 0.00
0.01 0.01 0.01 0.01 0.01 0.01 0.01 0.01 0.01 0.01 0.01 0.02 0.03 0.04 0.03 0.02 0.01 0.01 0.01 0.01 0.01 0.01 0.00 0.01 0.01 0.01 0.01 0.01 0.01 0.01 0.01 0.01 0.01 0.01 0.00 0.00 0.00 0.00
0.02 0.01 0.01 0.01 0.01 0.01 0.01 0.01 0.01 0.01 0.01 0.01 0.01 0.01 0.01 0.01 0.01 0.01 0.01 0.01 0.01 0.00 0.00 0.00 0.00 0.00 0.01 0.01 0.01 0.01 0.01 0.01 0.01 0.01 0.00 0.00 0.01 0.01
0.02 0.02 0.02 0.02 0.01 0.01 0.01 0.01 0.01 0.01 0.01 0.01 0.00 0.00 0.01 0.01 0.00 0.00 0.00 0.01 0.01 0.01 0.01 0.01 0.01 0.00 0.00 0.00 0.01 0.01 0.00 0.00 0.01 0.01 0.01 0.01 0.01 0.01
0.03 0.03 0.02 0.02 0.02 0.02 0.02 0.01 0.01 0.01 0.01 0.00 0.00 0.00 0.00 0.00 0.00 0.00 0.00 0.00 0.00 0.00 0.00 0.01 0.01 0.01 0.00 0.00 0.01 0.01 0.01 0.00 0.00 0.00 0.00 0.00 0.01 0.01
0.02 0.02 0.02 0.03 0.02 0.02 0.02 0.01 0.01 0.00 0.01 0.01 0.01 0.01 0.01 0.01 0.01 0.00 0.00 0.00 0.00 0.00 0.00 0.00 0.00 0.01 0.01 0.01 0.01 0.01 0.01 0.01 0.01 0.00 0.00 0.00 0.01 0.01
0.02 0.02 0.03 0.03 0.03 0.02 0.02 0.01 0.01 0.01 0.01 0.01 0.01 0.01 0.01 0.01 0.01 0.01 0.00 0.00 0.00 0.00 0.00 0.01 0.01 0.01 0.01 0.00 0.01 0.01 0.01 0.01 0.01 0.01 0.01 0.01 0.01 0.01
0.02 0.02 0.01 0.02 0.03 0.03 0.02 0.01 0.01 0.01 0.01 0.01 0.01 0.01 0.01 0.00 0.00 0.00 0.00 0.00 0.00 0.00 0.00 0.00 0.01 0.01 0.01 0.01 0.00 0.01 0.01 0.01 0.01 0.01 0.01 0.00 0.00 0.01
0.01 0.02 0.02 0.02 0.02 0.02 0.02 0.01 0.01 0.01 0.01 0.01 0.00 0.00 0.00 0.00 0.00 0.01 0.01 0.01 0.01 0.00 0.00 0.00 0.00 0.00 0.00 0.00 0.00 0.00 0.01 0.01 0.01 0.01 0.01 0.01 0.01 0.01
0.02 0.02 0.03 0.02 0.02 0.02 0.02 0.02 0.02 0.01 0.01 0.01 0.00 0.00 0.01 0.01 0.01 0.01 0.01 0.01 0.00 0.00 0.00 0.00 0.00 0.00 0.00 0.00 0.00 0.00 0.01 0.01 0.01 0.01 0.02 0.01 0.01 0.01
0.03 0.03 0.03 0.03 0.03 0.02 0.02 0.02 0.02 0.01 0.01 0.01 0.00 0.01 0.01 0.01 0.01 0.01 0.01 0.01 0.01 0.00 0.00 0.00 0.00 0.00 0.00 0.00 0.00 0.00 0.01 0.01 0.01 0.02 0.02 0.02 0.02 0.01
0.02 0.02 0.02 0.02 0.02 0.01 0.01 0.01 0.01 0.01 0.01 0.01 0.01 0.01 0.01 0.01 0.01 0.01 0.01 0.01 0.01 0.01 0.00 0.00 0.00 0.00 0.00 0.00 0.00 0.01 0.01 0.01 0.02 0.02 0.02 0.03 0.03 0.02
0.03 0.02 0.02 0.02 0.02 0.01 0.01 0.01 0.01 0.02 0.02 0.02 0.02 0.02 0.01 0.01 0.01 0.01 0.01 0.01 0.01 0.01 0.01 0.01 0.00 0.00 0.00 0.01 0.01 0.01 0.01 0.02 0.02 0.03 0.03 0.03 0.02 0.02
0.02 0.02 0.02 0.03 0.03 0.03 0.02 0.02 0.01 0.02 0.02 0.03 0.03 0.02 0.02 0.01 0.01 0.01 0.01 0.01 0.01 0.01 0.01 0.01 0.01 0.01 0.01 0.01 0.02 0.02 0.02 0.02 0.02 0.03 0.04 0.03 0.02 0.03
0.01 0.01 0.02 0.02 0.03 0.03 0.03 0.02 0.03 0.03 0.03 0.03 0.02 0.02 0.01 0.01 0.00 0.00 0.01 0.01 0.01 0.01 0.01 0.01 0.01 0.02 0.02 0.03 0.03 0.02 0.03 0.02 0.02 0.03 0.05 0.04 0.03 0.03
0.01 0.01 0.01 0.02 0.02 0.03 0.02 0.02 0.03 0.03 0.04 0.03 0.02 0.02 0.02 0.02 0.01 0.01 0.01 0.01 0.01 0.02 0.03 0.02 0.02 0.03 0.03 0.04 0.04 0.04 0.02 0.01 0.02 0.03 0.05 0.05 0.04 0.03
0.01 0.01 0.02 0.02 0.02 0.02 0.02 0.02 0.02 0.03 0.03 0.03 0.03 0.03 0.02 0.02 0.02 0.01 0.01 0.01 0.02 0.03 0.03 0.03 0.03 0.03 0.04 0.04 0.04 0.03 0.02 0.01 0.01 0.02 0.03 0.03 0.04 0.04
0.01 0.01 0.01 0.02 0.02 0.02 0.01 0.02 0.02 0.03 0.04 0.03 0.03 0.03 0.03 0.02 0.02 0.02 0.02 0.02 0.02 0.03 0.03 0.02 0.03 0.03 0.03 0.03 0.02 0.02 0.01 0.02 0.02 0.01 0.02 0.03 0.03 0.03
MSLP
1024.35 1024.31 1024.33 1024.42 1024.62 1024.93 1025.34 1025.83 1026.38 1026.93 1027.45 1027.89 1028.20 1028.35 1028.35 1028.21 1027.96 1027.64 1027.31 1027.01 1026.77 1026.62 1026.54 1026.53 1026.54 1026.54 1026.50 1026.40 1026.22 1025.98 1025.68 1025.34 1024.98 1024.61 1024.23 1023.85 1023.45 1023.03
1025.44 1025.35 1025.29 1025.29 1025.39 1025.61 1025.95 1026.39 1026.92 1027.49 1028.04 1028.52 1028.88 1029.08 1029.11 1028.98 1028.73 1028.39 1028.03 1027.69 1027.42 1027.24 1027.15 1027.12 1027.14 1027.15 1027.12 1027.03 1026.87 1026.62 1026.32 1025.97 1025.60 1025.21 1024.82 1024.42 1024.01 1023.58
1026.59 1026.49 1026.40 1026.35 1026.38 1026.52 1026.79 1027.19 1027.68 1028.24 1028.80 1029.30 1029.69 1029.92 1029.98 1029.86 1029.61 1029.25 1028.86 1028.49 1028.18 1027.96 1027.82 1027.76 1027.74 1027.72 1027.67 1027.55 1027.37 1027.11 1026.79 1026.43 1026.04 1025.65 1025.26 1024.87 1024.47 1024.06
1027.72 1027.65 1027.55 1027.49 1027.48 1027.57 1027.79 1028.13 1028.59 1029.12 1029.67 1030.17 1030.57 1030.81 1030.89 1030.79 1030.54 1030.18 1029.78 1029.37 1029.03 1028.75 1028.56 1028.44 1028.36 1028.28 1028.17 1028.00 1027.77 1027.47 1027.12 1026.75 1026.36 1025.97 1025.60 1025.23 1024.85 1024.47
1028.74 1028.71 1028.65 1028.59 1028.58 1028.65 1028.83 1029.13 1029.54 1030.03 1030.54 1031.03 1031.42 1031.67 1031.75 1031.67 1031.43 1031.09 1030.69 1030.28 1029.90 1029.59 1029.34 1029.15 1028.99 1028.84 1028.65 1028.41 1028.12 1027.77 1027.39 1026.99 1026.60 1026.22 1025.86 1025.53 1025.19 1024.84
1029.60 1029.63 1029.62 1029.59 1029.59 1029.65 1029.80 1030.06 1030.43 1030.86 1031.33 1031.77 1032.14 1032.38 1032.47 1032.41 1032.20 1031.89 1031.51 1031.11 1030.73 1030.40 1030.11 1029.87 1029.64 1029.40 1029.14 1028.82 1028.46 1028.06 1027.64 1027.22 1026.82 1026.45 1026.12 1025.81 1025.51 1025.19
1030.28 1030.37 1030.40 1030.41 1030.43 1030.49 1030.63 1030.85 1031.16 1031.54 1031.94 1032.33 1032.66 1032.89 1032.98 1032.93 1032.76 1032.49 1032.16 1031.81 1031.45 1031.13 1030.83 1030.55 1030.27 1029.98 1029.64 1029.26 1028.84 1028.39 1027.93 1027.49 1027.08 1026.71 1026.39 1026.11 1025.83 1025.54
1030.78 1030.92 1031.00 1031.05 1031.09 1031.16 1031.27 1031.46 1031.71 1032.02 1032.35 1032.68 1032.96 1033.16 1033.25 1033.23 1033.10 1032.89 1032.63 1032.33 1032.03 1031.74 1031.46 1031.18 1030.88 1030.55 1030.17 1029.75 1029.28 1028.79 1028.30 1027.84 1027.41 1027.05 1026.73 1026.45 1026.18 1025.90
1031.15 1031.32 1031.43 1031.51 1031.57 1031.63 1031.73 1031.88 1032.08 1032.32 1032.59 1032.85 1033.08 1033.25 1033.33 1033.33 1033.25 1033.10 1032.91 1032.69 1032.46 1032.23 1031.99 1031.74 1031.45 1031.12 1030.73 1030.28 1029.79 1029.28 1028.77 1028.28 1027.85 1027.46 1027.13 1026.84 1026.56 1026.27
1031.40 1031.58 1031.72 1031.82 1031.89 1031.96 1032.05 1032.16 1032.31 1032.49 1032.70 1032.90 1033.08 1033.22 1033.30 1033.32 1033.28 1033.19 1033.07 1032.93 1032.78 1032.61 1032.43 1032.22 1031.97 1031.65 1031.28 1030.84 1030.35 1029.83 1029.31 1028.81 1028.36 1027.96 1027.60 1027.28 1026.98 1026.67
1031.56 1031.75 1031.90 1032.01 1032.10 1032.17 1032.25 1032.34 1032.46 1032.60 1032.76 1032.92 1033.06 1033.18 1033.25 1033.29 1033.28 1033.24 1033.18 1033.10 1033.01 1032.91 1032.78 1032.62 1032.41 1032.13 1031.79 1031.37 1030.90 1030.40 1029.89 1029.39 1028.92 1028.49 1028.11 1027.77 1027.43 1027.09
1031.62 1031.82 1031.99 1032.12 1032.21 1032.30 1032.38 1032.46 1032.57 1032.69 1032.82 1032.95 1033.08 1033.18 1033.25 1033.29 1033.31 1033.30 1033.27 1033.23 1033.19 1033.13 1033.05 1032.93 1032.76 1032.52 1032.21 1031.84 1031.40 1030.93 1030.43 1029.94 1029.48 1029.04 1028.64 1028.26 1027.89 1027.52
1031.59 1031.80 1031.98 1032.13 1032.25 1032.35 1032.44 1032.54 1032.65 1032.77 1032.89 1033.02 1033.14 1033.24 1033.32 1033.36 1033.39 1033.39 1033.37 1033.35 1033.32 1033.28 1033.21 1033.12 1032.98 1032.78 1032.51 1032.18 1031.79 1031.36 1030.90 1030.43 1029.98 1029.54 1029.13 1028.74 1028.35 1027.96
1031.44 1031.67 1031.87 1032.05 1032.19 1032.32 1032.43 1032.55 1032.68 1032.82 1032.97 1033.11 1033.24 1033.35 1033.43 1033.48 1033.49 1033.49 1033.47 1033.43 1033.39 1033.34 1033.27 1033.18 1033.06 1032.88 1032.66 1032.37 1032.03 1031.65 1031.24 1030.82 1030.39 1029.97 1029.57 1029.17 1028.78 1028.37
1031.18 1031.44 1031.67 1031.87 1032.04 1032.19 1032.34 1032.49 1032.65 1032.82 1033.00 1033.16 1033.32 1033.44 1033.53 1033.57 1033.59 1033.56 1033.52 1033.45 1033.38 1033.30 1033.22 1033.12 1032.99 1032.84 1032.65 1032.41 1032.12 1031.80 1031.45 1031.08 1030.70 1030.31 1029.93 1029.54 1029.15 1028.74
1030.81 1031.10 1031.36 1031.59 1031.79 1031.98 1032.16 1032.35 1032.54 1032.74 1032.95 1033.14 1033.32 1033.46 1033.56 1033.61 1033.61 1033.57 1033.49 1033.40 1033.29 1033.18 1033.06 1032.95 1032.82 1032.68 1032.52 1032.32 1032.09 1031.83 1031.54 1031.23 1030.90 1030.56 1030.21 1029.84 1029.46 1029.05
1030.36 1030.68 1030.98 1031.24 1031.47 1031.68 1031.89 1032.10 1032.33 1032.56 1032.79 1033.01 1033.21 1033.37 1033.48 1033.53 1033.53 1033.48 1033.38 1033.26 1033.12 1032.98 1032.85 1032.72 1032.59 1032.47 1032.33 1032.18 1032.00 1031.80 1031.57 1031.32 1031.04 1030.74 1030.42 1030.08 1029.71 1029.30
1029.84 1030.21 1030.53 1030.82 1031.07 1031.31 1031.54 1031.77 1032.01 1032.27 1032.52 1032.76 1032.98 1033.15 1033.28 1033.34 1033.34 1033.28 1033.18 1033.05 1032.91 1032.76 1032.62 1032.49 1032.38 1032.27 1032.17 1032.05 1031.92 1031.77 1031.59 1031.38 1031.15 1030.88 1030.59 1030.26 1029.90 1029.50
1029.28 1029.68 1030.03 1030.35 1030.63 1030.88 1031.12 1031.37 1031.62 1031.89 1032.15 1032.40 1032.63 1032.82 1032.95 1033.03 1033.05 1033.01 1032.93 1032.82 1032.69 1032.56 1032.44 1032.34 1032.24 1032.17 1032.09 1032.01 1031.91 1031.80 1031.65 1031.48 1031.27 1031.02 1030.74 1030.42 1030.06 1029.66
1028.67 1029.10 1029.48 1029.82 1030.11 1030.39 1030.64 1030.90 1031.16 1031.42 1031.69 1031.94 1032.18 1032.38 1032.54 1032.64 1032.69 1032.69 1032.65 1032.58 1032.50 1032.41 1032.33 1032.27 1032.21 1032.17 1032.12 1032.07 1032.00 1031.90 1031.77 1031.61 1031.41 1031.17 1030.89 1030.58 1030.22 1029.81
1028.00 1028.44 1028.84 1029.20 1029.52 1029.81 1030.08 1030.34 1030.60 1030.87 1031.14 1031.40 1031.65 1031.86 1032.04 1032.18 1032.27 1032.33 1032.34 1032.34 1032.32 1032.30 1032.28 1032.27 1032.26 1032.26 1032.24 1032.21 1032.16 1032.07 1031.95 1031.78 1031.58 1031.34 1031.06 1030.73 1030.37 1029.98
1027.23 1027.68 1028.09 1028.46 1028.79 1029.10 1029.39 1029.67 1029.94 1030.22 1030.49 1030.77 1031.02 1031.26 1031.47 1031.65 1031.79 1031.91 1032.00 1032.07 1032.13 1032.19 1032.24 1032.29 1032.34 1032.38 1032.40 1032.38 1032.34 1032.25 1032.13 1031.96 1031.75 1031.50 1031.21 1030.89 1030.54 1030.16
1026.34 1026.77 1027.18 1027.56 1027.91 1028.23 1028.54 1028.85 1029.14 1029.44 1029.73 1030.02 1030.29 1030.56 1030.80 1031.03 1031.23 1031.41 1031.57 1031.73 1031.87 1032.01 1032.14 1032.26 1032.36 1032.44 1032.49 1032.50 1032.47 1032.38 1032.26 1032.09 1031.87 1031.63 1031.35 1031.04 1030.71 1030.35
Thickness
5674 5672 5671 5669 5668 5666 5664 5660 5653 5645 5642 5642 5641 5641 5641 5641 5641 5640 5640 5639 5638 5637 5636 5635 5634 5633 5632 5631 5630 5629 5628 5627 5627 5626 5626 5625 5625 5625
5670 5668 5667 5665 5664 5663 5660 5657 5654 5648 5640 5638 5637 5637 5637 5636 5635 5634 5634 5633 5632 5631 5630 5629 5628 5627 5625 5624 5622 5621 5620 5620 5619 5618 5617 5617 5617 5616
5666 5665 5663 5662 5660 5658 5656 5653 5650 5646 5639 5634 5634 5633 5631 5630 5629 5628 5628 5628 5626 5625 5624 5623 5622 5620 5619 5617 5616 5614 5613 5612 5611 5610 5609 5609 5608 5608
5663 5661 5659 5658 5656 5654 5651 5649 5646 5643 5639 5632 5629 5628 5627 5625 5624 5623 5622 5622 5621 5620 5619 5617 5616 5614 5612 5611 5609 5607 5606 5604 5603 5602 5601 5601 5600 5599
5660 5658 5656 5654 5652 5650 5648 5645 5642 5639 5636 5631 5625 5623 5622 5620 5618 5617 5617 5616 5616 5614 5613 5612 5610 5609 5607 5605 5603 5601 5599 5597 5596 5594 5593 5592 5591 5590
5657 5655 5654 5652 5650 5647 5644 5641 5638 5633 5630 5626 5621 5618 5616 5615 5613 5611 5609 5609 5608 5608 5607 5606 5604 5603 5601 5599 5597 5595 5593 5591 5588 5586 5585 5583 5582 5581
5653 5652 5650 5649 5648 5645 5642 5637 5634 5629 5624 5620 5616 5613 5611 5608 5607 5606 5604 5602 5601 5601 5600 5599 5598 5596 5594 5592 5590 5588 5586 5584 5581 5579 5577 5575 5574 5572
5648 5647 5646 5645 5644 5642 5639 5636 5632 5627 5620 5616 5612 5609 5608 5606 5603 5602 5598 5595 5594 5595 5593 5592 5591 5589 5588 5586 5584 5582 5579 5576 5574 5571 5569 5567 5566 5564
5644 5643 5642 5640 5638 5635 5633 5630 5627 5625 5622 5617 5612 5609 5606 5605 5601 5597 5594 5592 5589 5589 5587 5585 5584 5582 5582 5580 5578 5575 5572 5569 5567 5564 5562 5560 5559 5557
5641 5639 5637 5634 5633 5630 5627 5623 5620 5618 5617 5614 5612 5610 5607 5604 5601 5598 5593 5589 5586 5584 5583 5578 5577 5576 5576 5574 5572 5569 5566 5563 5560 5558 5556 5554 5552 5551
5636 5635 5633 5630 5629 5626 5623 5618 5615 5613 5612 5610 5608 5606 5604 5601 5597 5593 5587 5583 5580 5579 5577 5573 5571 5570 5569 5568 5567 5564 5560 5558 5555 5553 5550 5548 5546 5545
5631 5630 5629 5627 5625 5621 5618 5614 5610 5607 5606 5603 5601 5600 5598 5596 5593 5590 5586 5580 5576 5573 5572 5569 5565 5563 5561 5562 5560 5558 5555 5553 5550 5548 5545 5543 5541 5539
5627 5625 5624 5623 5621 5617 5614 5611 5608 5605 5601 5598 5595 5593 5591 5590 5587 5585 5583 5580 5574 5570 5569 5565 5560 5557 5554 5553 5552 5552 5549 5547 5545 5542 5540 5537 5535 5533
5623 5622 5620 5619 5616 5613 5610 5607 5604 5600 5596 5592 5589 5586 5585 5583 5582 5580 5578 5576 5573 5569 5566 5562 5557 5553 5549 5545 5544 5544 5543 5541 5539 5537 5534 5532 5529 5527
5621 5619 5616 5614 5611 5608 5606 5603 5599 5594 5590 5587 5584 5582 5581 5579 5577 5575 5572 5569 5567 5564 5560 5558 5555 5550 5546 5542 5539 5537 5535 5535 5533 5530 5529 5526 5524 5522
5614 5613 5611 5608 5605 5603 5600 5597 5593 5590 5587 5584 5581 5578 5576 5573 5571 5569 5565 5562 5558 5556 5554 5552 5550 5546 5541 5538 5535 5532 5530 5528 5527 5525 5522 5520 5519 5517
5609 5606 5603 5600 5598 5595 5593 5591 5588 5585 5582 5579 5576 5573 5570 5568 5565 5563 5559 5555 5552 5549 5547 5545 5543 5540 5538 5534 5530 5528 5525 5523 5522 5519 5516 5514 5513 5512
5604 5601 5598 5596 5594 5592 5589 5586 5583 5581 5578 5576 5572 5569 5566 5564 5560 5557 5554 5550 5547 5544 5540 5538 5535 5532 5529 5528 5527 5524 5521 5519 5516 5513 5510 5507 5507 5506
5598 5597 5595 5593 5590 5588 5585 5583 5580 5578 5575 5572 5569 5566 5563 5560 5556 5553 5549 5545 5542 5539 5536 5532 5529 5525 5522 5522 5522 5520 5516 5514 5511 5507 5504 5502 5501 5501
5594 5593 5591 5589 5587 5584 5582 5579 5577 5574 5571 5568 5565 5563 5559 5556 5552 5549 5545 5542 5538 5535 5530 5527 5524 5522 5520 5518 5515 5513 5512 5509 5505 5502 5500 5497 5495 5494
5590 5588 5587 5586 5583 5581 5578 5576 5573 5570 5568 5565 5562 5559 5556 5552 5549 5546 5542 5538 5534 5530 5526 5524 5522 5519 5515 5510 5507 5507 5506 5503 5501 5498 5495 5491 5488 5486
5586 5584 5583 5581 5579 5577 5574 5572 5569 5566 5564 5562 5559 5556 5552 5549 5545 5542 5538 5533 5530 5526 5523 5520 5516 5512 5508 5505 5503 5502 5500 5497 5495 5492 5490 5488 5483 5480
5581 5580 5578 5576 5575 5572 5570 5568 5566 5564 5561 5558 5555 5552 5549 5545 5542 5538 5534 5530 5526 5522 5517 5513 5509 5506 5503 5500 5498 5496 5494 5491 5488 5485 5484 5482 5479 5477